Location: Bosdarros
(43.2167°N, 0.3667°W)
Time: 14:47:37
(UTC+00:00)

SL-16 R/B - Pass Details

Date: 22 April 2021
Orbit: 840 x 849 km, 71.0° (Epoch: 12 May)

Event Time Altitude Azimuth Distance (km) Brightness Sun altitude
Rises 19:32:07 0° 345° (NNW) 3,422 6.0 -7.5°
Reaches altitude 10° 19:35:30 10° 6° (N) 2,481 4.9 -8.1°
Maximum altitude 19:39:10 17° 46° (NE) 2,012 4.0 -8.7°
Drops below altitude 10° 19:42:49 10° 86° (E) 2,470 4.1 -9.3°
Enters shadow 19:43:23 - 91° (E) 2,605 4.2 -9.4°
